Total_Precipitation_Accumulation
2.05 2.08 1.61 1.01 0.80 0.68 0.63 0.66 0.60 0.51 0.48 0.65 0.70 0.66 0.68 0.66 0.64 0.67 0.69 0.73 0.88 1.07 1.22 1.43 1.65 2.04 2.29 2.58 2.92 3.05 3.34 3.58 3.76 3.95 3.99 3.77 3.50 3.28 3.09 3.03 2.96 2.77 2.60 2.52
1.96 1.58 0.89 0.71 0.73 0.74 0.76 0.82 0.65 0.55 0.49 0.63 0.66 0.62 0.67 0.74 0.73 0.66 0.63 0.67 0.76 0.94 1.08 1.24 1.49 1.84 2.04 2.22 2.45 2.67 2.91 3.20 3.43 3.52 3.59 3.68 3.70 3.46 3.17 3.07 3.07 3.03 2.93 2.77
1.40 0.93 0.65 0.76 0.86 0.94 0.85 0.81 0.69 0.65 0.60 0.69 0.71 0.73 0.66 0.70 0.72 0.72 0.69 0.69 0.76 0.92 0.98 1.09 1.29 1.67 1.87 1.97 2.15 2.36 2.60 2.78 2.93 3.29 3.58 3.66 3.88 3.83 3.39 3.03 2.86 2.97 3.06 3.06
1.15 0.69 0.72 0.89 0.85 0.90 0.94 0.60 0.61 0.69 0.94 1.05 0.81 1.00 0.74 0.68 0.68 0.74 0.78 0.80 0.85 0.93 0.99 1.08 1.16 1.39 1.61 1.70 1.87 2.12 2.41 2.64 2.71 3.00 3.25 3.27 3.21 3.29 3.10 2.92 2.89 3.00 3.06 3.12
1.22 0.79 0.81 0.97 0.73 0.75 0.78 0.57 0.69 0.80 1.00 1.12 0.80 0.93 0.84 0.63 0.74 0.79 0.82 0.87 0.94 0.91 0.94 1.06 1.12 1.19 1.37 1.48 1.58 1.80 2.16 2.46 2.61 2.71 2.90 3.08 3.09 3.09 3.17 3.14 3.05 2.97 2.92 2.98
0.90 0.80 0.90 0.83 0.62 0.70 0.79 0.91 1.04 1.10 1.45 1.54 0.73 0.80 0.88 0.77 0.84 0.79 0.75 0.83 0.92 0.87 0.93 0.99 1.02 1.06 1.23 1.31 1.32 1.49 1.75 2.15 2.52 2.64 2.69 2.79 2.85 2.83 2.93 3.08 3.08 3.03 2.91 2.84
1.10 0.90 0.83 0.83 1.00 1.01 1.24 1.83 2.34 2.25 2.10 1.19 0.44 0.63 0.91 0.80 0.72 0.76 0.75 0.76 0.83 0.86 0.90 0.94 0.99 1.08 1.14 1.22 1.22 1.30 1.43 1.75 2.16 2.41 2.46 2.52 2.60 2.63 2.62 2.78 2.97 2.99 2.88 2.73
1.19 1.06 0.75 0.86 1.18 1.27 1.21 1.60 1.87 1.53 1.01 0.57 0.41 0.63 0.82 0.71 0.63 0.60 0.57 0.59 0.68 0.77 0.81 0.84 0.87 0.94 0.97 1.01 1.10 1.20 1.27 1.42 1.67 1.95 2.14 2.28 2.38 2.43 2.34 2.35 2.62 2.77 2.70 2.63
1.03 0.84 0.52 0.62 0.77 0.96 1.19 1.27 1.12 1.38 0.96 0.67 0.53 0.57 0.60 0.48 0.49 0.50 0.48 0.50 0.59 0.63 0.67 0.70 0.72 0.76 0.78 0.82 0.91 1.03 1.07 1.15 1.33 1.58 1.81 2.02 2.13 2.25 2.27 2.20 2.29 2.57 2.61 2.50
1.02 1.04 0.59 0.63 0.89 1.02 1.08 1.07 1.30 1.96 1.59 0.94 0.55 0.49 0.61 0.54 0.51 0.54 0.52 0.48 0.51 0.52 0.57 0.61 0.64 0.69 0.73 0.75 0.72 0.76 0.89 1.03 1.15 1.27 1.52 1.72 1.88 2.01 2.10 2.17 2.16 2.24 2.35 2.36
0.90 1.26 0.88 0.85 1.13 1.10 1.10 1.33 1.50 1.60 1.36 1.21 0.83 0.69 0.64 0.56 0.54 0.55 0.54 0.49 0.48 0.49 0.55 0.58 0.60 0.64 0.72 0.75 0.68 0.65 0.75 0.89 0.99 1.05 1.24 1.41 1.55 1.72 1.86 1.95 2.00 2.02 2.07 2.17
0.88 1.43 1.13 0.76 0.66 0.71 0.92 1.08 1.32 1.82 1.43 1.11 0.95 0.78 0.56 0.49 0.48 0.51 0.53 0.52 0.50 0.53 0.59 0.58 0.58 0.60 0.68 0.77 0.75 0.69 0.71 0.78 0.88 0.95 1.05 1.25 1.33 1.47 1.63 1.75 1.80 1.81 1.84 1.90
1.24 1.75 1.57 1.10 0.95 0.94 1.08 0.97 1.03 1.47 1.83 1.45 1.16 0.79 0.50 0.40 0.38 0.42 0.49 0.51 0.51 0.55 0.61 0.60 0.60 0.62 0.67 0.75 0.81 0.73 0.72 0.74 0.80 0.91 0.95 1.09 1.22 1.30 1.37 1.48 1.59 1.66 1.70 1.76
1.53 1.76 1.43 1.19 1.11 1.13 1.06 0.85 0.98 1.76 2.25 1.36 0.79 0.55 0.41 0.39 0.44 0.46 0.47 0.51 0.55 0.57 0.61 0.62 0.67 0.69 0.72 0.75 0.81 0.76 0.75 0.72 0.72 0.84 0.91 0.94 1.10 1.21 1.26 1.29 1.36 1.44 1.47 1.55
1.26 1.60 1.03 0.68 0.56 0.74 0.79 0.78 0.90 1.32 1.38 1.32 0.79 0.51 0.47 0.49 0.56 0.55 0.51 0.49 0.50 0.52 0.55 0.59 0.62 0.69 0.72 0.75 0.81 0.81 0.78 0.77 0.71 0.76 0.86 0.91 0.98 1.07 1.18 1.25 1.30 1.38 1.41 1.42
1.06 1.36 1.05 0.75 0.47 0.56 0.66 0.63 0.67 0.80 0.88 0.91 0.68 0.64 0.56 0.51 0.48 0.46 0.46 0.44 0.48 0.50 0.53 0.55 0.54 0.60 0.64 0.73 0.82 0.88 0.87 0.83 0.77 0.75 0.79 0.87 0.94 0.98 1.04 1.13 1.23 1.30 1.40 1.44
0.98 1.23 1.39 0.97 0.53 0.69 0.85 0.75 0.74 0.76 0.77 0.79 0.84 0.76 0.61 0.55 0.51 0.50 0.48 0.45 0.46 0.46 0.46 0.48 0.50 0.56 0.59 0.66 0.75 0.85 0.89 0.86 0.83 0.80 0.78 0.82 0.90 1.00 1.05 1.07 1.16 1.30 1.40 1.56
0.70 1.07 1.57 1.17 0.80 1.01 0.81 0.61 0.62 0.67 0.70 0.74 0.72 0.63 0.57 0.55 0.53 0.52 0.49 0.44 0.43 0.42 0.42 0.42 0.45 0.46 0.48 0.53 0.63 0.75 0.81 0.84 0.85 0.84 0.86 0.88 0.90 1.02 1.13 1.15 1.19 1.29 1.39 1.54
0.42 0.92 1.55 1.37 1.02 0.69 0.45 0.43 0.58 0.67 0.71 0.68 0.56 0.46 0.43 0.43 0.44 0.46 0.42 0.40 0.42 0.43 0.46 0.45 0.46 0.48 0.47 0.50 0.59 0.70 0.77 0.79 0.82 0.86 0.90 0.93 0.96 1.08 1.19 1.20 1.22 1.27 1.33 1.41
0.39 0.78 1.52 1.45 1.23 0.69 0.47 0.29 0.33 0.53 0.77 0.56 0.49 0.48 0.47 0.47 0.56 0.50 0.40 0.38 0.40 0.40 0.42 0.47 0.49 0.48 0.52 0.55 0.59 0.69 0.80 0.89 0.94 0.96 1.00 1.03 1.12 1.23 1.29 1.27 1.25 1.23 1.23 1.23
0.59 1.05 1.38 1.20 1.15 0.62 0.43 0.27 0.28 0.74 0.89 0.49 0.46 0.50 0.52 0.57 0.59 0.50 0.39 0.37 0.41 0.44 0.44 0.46 0.50 0.53 0.57 0.61 0.63 0.67 0.75 0.92 1.02 1.06 1.07 1.08 1.15 1.23 1.27 1.24 1.19 1.16 1.12 1.10
0.54 0.78 0.87 0.93 1.20 0.86 0.45 0.36 0.66 0.85 0.54 0.46 0.47 0.49 0.52 0.51 0.43 0.37 0.38 0.38 0.37 0.39 0.42 0.47 0.55 0.58 0.58 0.65 0.72 0.72 0.78 0.87 0.93 0.99 1.01 1.01 1.03 1.09 1.16 1.19 1.14 1.10 1.10 1.09
0.58 0.74 0.80 0.85 0.93 0.79 0.61 0.67 0.70 0.60 0.54 0.46 0.47 0.47 0.47 0.45 0.43 0.37 0.35 0.35 0.37 0.40 0.43 0.49 0.59 0.64 0.65 0.67 0.73 0.78 0.76 0.76 0.81 0.89 0.94 0.92 0.89 0.92 0.98 1.05 1.08 1.09 1.10 1.09
0.53 0.47 0.63 0.74 0.72 0.62 0.58 0.52 0.48 0.47 0.51 0.46 0.43 0.44 0.46 0.47 0.43 0.40 0.37 0.37 0.36 0.37 0.42 0.49 0.54 0.59 0.62 0.63 0.65 0.69 0.65 0.64 0.67 0.74 0.81 0.85 0.85 0.86 0.86 0.90 0.99 1.05 1.10 1.10
0.57 0.51 0.58 0.65 0.57 0.47 0.46 0.45 0.45 0.42 0.38 0.35 0.34 0.35 0.41 0.43 0.41 0.40 0.41 0.40 0.40 0.41 0.44 0.49 0.56 0.60 0.62 0.59 0.60 0.60 0.60 0.60 0.64 0.65 0.70 0.74 0.80 0.85 0.89 0.90 0.98 1.08 1.13 1.22
0.50 0.55 0.66 0.72 0.56 0.58 0.57 0.48 0.43 0.41 0.39 0.38 0.35 0.33 0.32 0.36 0.40 0.37 0.38 0.38 0.40 0.45 0.46 0.48 0.50 0.56 0.63 0.62 0.59 0.58 0.58 0.60 0.66 0.70 0.70 0.74 0.81 0.85 0.87 0.89 0.95 1.05 1.10 1.16